Location: Woodstock
(35.2731°N, 89.9823°W)
Time: 17:05:00
(UTC+00:00)

Vanguard 3 - Pass Details

Date: 22 May 2025
Orbit: 508 x 3215 km, 33.3° (Epoch: 14 June)

Event Time Altitude Azimuth Distance (km) Brightness Sun altitude
Rises 10:43:18 0° 260° (W) 4,234 - -2.2°
Exits shadow 10:43:33 - 260° (W) 4,137 10.1 -2.2°
Reaches altitude 10° 10:46:50 10° 259° (W) 2,856 9.3 -1.6°
Maximum altitude 10:53:09 70° 177° (S) 759 7.0 -0.4°
Drops below altitude 10° 10:57:15 10° 93° (E) 1,877 10.3 0.3°
Sets 10:59:10 0° 91° (E) 2,672 11.2 0.7°
